Location: Favalello
(42.2939°N, 9.2706°E)
Time: 18:04:03
(UTC+00:00)

Exosat Rocket - Pass Details

Date: 06 December 2019
Orbit: 760 x 2515 km, 72.3° (Epoch: 27 January)

Event Time Altitude Azimuth Distance (km) Brightness Sun altitude
Rises 16:52:42 0° 192° (SSW) 3,722 7.5 -11.2°
Reaches altitude 10° 16:55:28 10° 189° (S) 2,604 6.6 -11.7°
Maximum altitude 17:01:03 64° 109° (ESE) 882 3.6 -12.7°
Drops below altitude 10° 17:05:58 10° 29° (NNE) 2,299 5.5 -13.5°
Enters shadow 17:05:59 10° 29° (NNE) 2,304 5.5 -13.5°
